Regional Weather Roundup
Issued by NWS

Home | Current Version | Previous Version | Graphics & Text | Print | Product List | Glossary On
Versions: 1 2 3 4 5 6 7 8 9 10 11 12 13 14 15 16 17 18 19 20 21 22 23 24 25 26 27 28 29 30 31 32 33 34 35 36 37 38 39 40 41 42 43 44 45 46 47 48 49 50
000
ASUS43 KBIS 040602
RWRND

NORTH DAKOTA REGIONAL WEATHER ROUNDUP
NATIONAL WEATHER SERVICE BISMARCK ND
100 AM CDT FRI SEP 04 2015

NOTE: "FAIR" INDICATES FEW OR NO CLOUDS BELOW 12,000 FEET WITH NO
SIGNIFICANT WEATHER AND/OR OBSTRUCTIONS TO VISIBILITY.


NDZ001>003-009>011-017-040700-
NORTHWEST NORTH DAKOTA

CITY           SKY/WX    TMP DP  RH WIND       PRES   REMARKS
WILLISTON      CLOUDY    69  50  50 N17       29.80R
6HR MIN TEMP:  68; 6HR MAX TEMP:  82;

MINOT          PTCLDY    68  62  81 NW9       29.71F
$$

NDZ018>021-031>035-040>046-040700-
SOUTHWEST NORTH DAKOTA

CITY           SKY/WX    TMP DP  RH WIND       PRES   REMARKS
BISMARCK       PTCLDY    79  69  71 S14       29.70R
6HR MIN TEMP:  78; 6HR MAX TEMP:  93;

DICKINSON      PTCLDY    69  64  84 NE9       29.71F
GARRISON         N/A     72  68  87 CALM      29.72R
6HR MIN TEMP:  70; 6HR MAX TEMP:  95;

HETTINGER ARPT CLOUDY    72  53  51 E10       29.73R
$$

NDZ004>008-012>016-024-026-027-054-040700-
NORTHEAST NORTH DAKOTA

CITY           SKY/WX    TMP DP  RH WIND       PRES   REMARKS
GRAND FORKS    CLOUDY    77  72  84 S15       29.76R
GRND FRKS AFB  CLOUDY    78  74  88 S12       29.77R
DEVILS LAKE    CLOUDY    77  66  69 SE6       29.73S
$$

NDZ022-023-025-028>030-036>039-047>053-040700-
SOUTHEAST NORTH DAKOTA

CITY           SKY/WX    TMP DP  RH WIND       PRES   REMARKS
FARGO          MOCLDY    78  72  81 SE13      29.78F
6HR MIN TEMP:  78; 6HR MAX TEMP:  89;

JAMESTOWN      PTCLDY    75  72  90 SE7       29.77S
$$




USA.gov is the U.S. government's official web portal to all federal, state and local government web resources and services.